Time,TemperatureF,DewpointF,PressureIn,WindDirection,WindDirectionDegrees,WindSpeedMPH,WindSpeedGustMPH,Humidity,HourlyPrecipIn,Conditions,Clouds,dailyrainin,SoftwareType,DateUTC
2013-02-03 00:00:00,4.6,-1.5,29.76,SSW,202,1.3,3.5,75,0.00,,SKC,0.00,VWS V14.01,2013-02-03 06:00:00,
2013-02-03 00:20:00,4.5,-1.7,29.76,SSW,202,2.6,5.1,75,0.00,,SKC,0.00,VWS V14.01,2013-02-03 06:20:00,
2013-02-03 00:40:00,4.5,-1.7,29.74,SSE,158,0.0,3.9,75,0.00,,SKC,0.00,VWS V14.01,2013-02-03 06:40:00,
2013-02-03 01:00:00,4.6,-1.5,29.74,SSW,202,1.0,4.7,75,0.00,,SKC,0.00,VWS V14.01,2013-02-03 07:00:00,
2013-02-03 01:20:00,4.6,-1.5,29.74,SSW,202,0.0,3.9,75,0.00,,SKC,0.00,VWS V14.01,2013-02-03 07:20:00,
2013-02-03 01:40:00,4.6,-1.5,29.76,SSW,202,0.0,4.3,75,0.00,,SKC,0.00,VWS V14.01,2013-02-03 07:40:00,
2013-02-03 02:00:00,4.6,-1.5,29.74,WSW,248,1.5,5.9,75,0.00,,SKC,0.00,VWS V14.01,2013-02-03 08:00:00,
2013-02-03 02:20:00,5.0,-1.2,29.74,SSW,202,1.0,3.9,75,0.00,,SKC,0.00,VWS V14.01,2013-02-03 08:20:00,
2013-02-03 02:40:00,5.0,-1.2,29.74,SW,225,0.0,5.9,75,0.00,,SKC,0.00,VWS V14.01,2013-02-03 08:40:00,
2013-02-03 03:00:00,5.0,-1.2,29.74,SSW,202,3.1,7.8,75,0.00,,SKC,0.00,VWS V14.01,2013-02-03 09:00:00,
2013-02-03 03:20:00,5.0,-1.2,29.74,SSW,202,1.3,5.5,75,0.00,,SKC,0.00,VWS V14.01,2013-02-03 09:20:00,
2013-02-03 03:40:00,5.2,-1.0,29.74,SSW,202,0.0,5.5,75,0.00,,SKC,0.00,VWS V14.01,2013-02-03 09:40:00,
2013-02-03 04:00:00,5.2,-1.0,29.74,NNW,338,1.5,4.3,75,0.00,,SKC,0.00,VWS V14.01,2013-02-03 10:00:00,
2013-02-03 04:20:00,5.4,-0.8,29.74,SSW,202,0.0,4.3,75,0.00,,SKC,0.00,VWS V14.01,2013-02-03 10:20:00,
2013-02-03 04:40:00,5.4,-0.8,29.74,South,180,2.6,5.5,75,0.00,,SKC,0.00,VWS V14.01,2013-02-03 10:40:00,
2013-02-03 05:00:00,5.4,-0.8,29.74,SSE,158,1.3,4.3,75,0.00,,SKC,0.00,VWS V14.01,2013-02-03 11:00:00,
2013-02-03 05:20:00,4.8,-1.4,29.74,SSW,202,1.8,4.7,75,0.00,,SKC,0.00,VWS V14.01,2013-02-03 11:20:00,
2013-02-03 05:40:00,4.5,-1.7,29.76,SSW,202,1.5,6.3,75,0.00,,SKC,0.00,VWS V14.01,2013-02-03 11:40:00,
2013-02-03 06:00:00,4.5,-1.7,29.76,SSW,202,1.0,3.9,75,0.00,,SKC,0.00,VWS V14.01,2013-02-03 12:00:00,
2013-02-03 06:20:00,4.3,-1.9,29.76,SSW,202,2.3,5.1,75,0.00,,SKC,0.00,VWS V14.01,2013-02-03 12:20:00,
2013-02-03 06:40:00,3.7,-2.4,29.76,SSW,202,1.0,5.1,75,0.00,,SKC,0.00,VWS V14.01,2013-02-03 12:40:00,
2013-02-03 07:00:00,3.2,-2.9,29.76,SSW,202,1.3,5.5,75,0.00,,SKC,0.00,VWS V14.01,2013-02-03 13:00:00,
2013-02-03 07:20:00,2.7,-3.5,29.79,SSW,202,0.0,4.3,75,0.00,,SKC,0.00,VWS V14.01,2013-02-03 13:20:00,
2013-02-03 07:40:00,2.5,-3.6,29.79,WSW,248,0.0,7.0,75,0.00,,SKC,0.00,VWS V14.01,2013-02-03 13:40:00,
2013-02-03 08:00:00,2.3,-3.8,29.76,West,270,2.8,4.3,75,0.00,,SKC,0.00,VWS V14.01,2013-02-03 14:00:00,
2013-02-03 08:20:00,2.8,-3.3,29.79,SW,225,1.8,11.0,75,0.00,,SKC,0.00,VWS V14.01,2013-02-03 14:20:00,
2013-02-03 08:40:00,3.7,-2.4,29.79,WNW,292,1.3,13.3,75,0.00,,SKC,0.00,VWS V14.01,2013-02-03 14:40:00,
2013-02-03 09:00:00,4.1,-2.0,29.79,SSW,202,1.3,12.5,75,0.00,,SKC,0.00,VWS V14.01,2013-02-03 15:00:00,
2013-02-03 09:20:00,4.5,-1.7,29.82,WNW,292,4.1,11.4,75,0.00,,SKC,0.00,VWS V14.01,2013-02-03 15:20:00,
2013-02-03 09:40:00,5.4,-0.8,29.82,WNW,292,3.1,13.7,75,0.00,,SKC,0.00,VWS V14.01,2013-02-03 15:40:00,
2013-02-03 10:00:00,6.4,0.2,29.82,WNW,292,1.8,10.6,75,0.00,,SKC,0.00,VWS V14.01,2013-02-03 16:00:00,
2013-02-03 10:20:00,6.4,0.2,29.82,SW,225,3.9,11.4,75,0.00,,SKC,0.00,VWS V14.01,2013-02-03 16:20:00,
2013-02-03 10:40:00,6.1,-0.1,29.82,NNW,338,3.3,11.0,75,0.00,,SKC,0.00,VWS V14.01,2013-02-03 16:40:00,
2013-02-03 11:00:00,6.6,0.4,29.82,North,0,4.6,9.8,75,0.00,,SKC,0.00,VWS V14.01,2013-02-03 17:00:00,
2013-02-03 11:20:00,7.2,0.9,29.82,WNW,292,4.4,9.8,75,0.00,,SKC,0.00,VWS V14.01,2013-02-03 17:20:00,
2013-02-03 11:40:00,8.6,2.3,29.82,SSE,158,2.6,10.2,75,0.00,,SKC,0.00,VWS V14.01,2013-02-03 17:40:00,
2013-02-03 12:00:00,9.9,3.5,29.79,WNW,292,2.8,8.6,75,0.00,,SKC,0.00,VWS V14.01,2013-02-03 18:00:00,
2013-02-03 12:20:00,10.4,4.1,29.82,SSW,202,1.5,7.8,75,0.00,,SKC,0.00,VWS V14.01,2013-02-03 18:20:00,
2013-02-03 12:40:00,10.6,4.2,29.79,WNW,292,3.3,14.9,75,0.00,,SKC,0.00,VWS V14.01,2013-02-03 18:40:00,
2013-02-03 13:00:00,12.6,6.2,29.79,NW,315,2.3,7.4,75,0.00,,SKC,0.00,VWS V14.01,2013-02-03 19:00:00,
2013-02-03 13:20:00,12.4,6.0,29.79,NNE,22,3.1,11.0,75,0.00,,SKC,0.00,VWS V14.01,2013-02-03 19:20:00,
2013-02-03 13:40:00,13.6,-2.0,29.79,NNE,22,1.3,10.6,49,0.00,,SKC,0.00,VWS V14.01,2013-02-03 19:40:00,
2013-02-03 14:00:00,15.1,-1.1,29.76,NNW,338,7.2,11.0,48,0.00,,SKC,0.00,VWS V14.01,2013-02-03 20:00:00,
2013-02-03 14:20:00,14.7,-1.4,29.76,WSW,248,3.1,11.0,48,0.00,,SKC,0.00,VWS V14.01,2013-02-03 20:20:00,
2013-02-03 14:40:00,13.6,-2.4,29.76,WNW,292,4.1,12.9,48,0.00,,SKC,0.00,VWS V14.01,2013-02-03 20:40:00,
2013-02-03 15:00:00,13.3,-2.7,29.79,West,270,1.5,9.8,48,0.00,,SKC,0.00,VWS V14.01,2013-02-03 21:00:00,
2013-02-03 15:20:00,12.7,-3.2,29.76,South,180,1.3,9.8,48,0.00,,SKC,0.00,VWS V14.01,2013-02-03 21:20:00,
2013-02-03 15:40:00,11.8,-4.1,29.76,WSW,248,1.3,11.4,48,0.00,,SKC,0.00,VWS V14.01,2013-02-03 21:40:00,
2013-02-03 16:00:00,11.7,-4.2,29.79,SSW,202,1.5,11.0,48,0.00,,SKC,0.00,VWS V14.01,2013-02-03 22:00:00,
2013-02-03 16:20:00,10.9,-4.9,29.76,SSW,202,1.8,7.0,48,0.00,,SKC,0.00,VWS V14.01,2013-02-03 22:20:00,
2013-02-03 16:40:00,10.2,-5.6,29.79,NW,315,0.0,8.2,48,0.00,,SKC,0.00,VWS V14.01,2013-02-03 22:40:00,
2013-02-03 17:00:00,9.3,-6.4,29.76,SW,225,0.0,5.1,48,0.00,,SKC,0.00,VWS V14.01,2013-02-03 23:00:00,
2013-02-03 17:20:00,8.1,-7.6,29.76,ESE,112,0.0,4.3,48,0.00,,SKC,0.00,VWS V14.01,2013-02-03 23:20:00,
2013-02-03 17:40:00,6.4,-9.1,29.76,ESE,112,0.0,0.0,48,0.00,,SKC,0.00,VWS V14.01,2013-02-03 23:40:00,
2013-02-03 18:00:00,5.0,-10.4,29.76,ESE,112,0.0,0.0,48,0.00,,SKC,0.00,VWS V14.01,2013-02-04 00:00:00,
2013-02-03 18:20:00,4.5,-10.9,29.79,ESE,112,0.0,0.0,48,0.00,,SKC,0.00,VWS V14.01,2013-02-04 00:20:00,
2013-02-03 18:40:00,4.3,-11.1,29.79,ESE,112,0.0,0.0,48,0.00,,SKC,0.00,VWS V14.01,2013-02-04 00:40:00,
2013-02-03 19:00:00,5.0,-10.4,29.79,ESE,112,0.0,0.0,48,0.00,,SKC,0.00,VWS V14.01,2013-02-04 01:00:00,
2013-02-03 19:20:00,5.2,-10.2,29.79,ESE,112,0.0,0.0,48,0.00,,SKC,0.00,VWS V14.01,2013-02-04 01:20:00,
2013-02-03 19:40:00,5.2,-10.2,29.79,ESE,112,0.0,0.0,48,0.00,,SKC,0.00,VWS V14.01,2013-02-04 01:40:00,
2013-02-03 20:00:00,5.0,-10.4,29.79,ESE,112,0.0,0.0,48,0.00,,SKC,0.00,VWS V14.01,2013-02-04 02:00:00,
2013-02-03 20:20:00,5.0,-10.4,29.79,ESE,112,0.0,0.0,48,0.00,,SKC,0.00,VWS V14.01,2013-02-04 02:20:00,
2013-02-03 20:40:00,4.5,-10.9,29.79,ESE,112,0.0,0.0,48,0.00,,SKC,0.00,VWS V14.01,2013-02-04 02:40:00,
2013-02-03 21:00:00,4.3,-11.1,29.79,ESE,112,0.0,0.0,48,0.00,,SKC,0.00,VWS V14.01,2013-02-04 03:00:00,
2013-02-03 21:20:00,3.9,-11.4,29.79,ESE,112,0.0,0.0,48,0.00,,SKC,0.00,VWS V14.01,2013-02-04 03:20:00,
2013-02-03 21:40:00,2.8,-12.4,29.79,ESE,112,0.0,0.0,48,0.00,,SKC,0.00,VWS V14.01,2013-02-04 03:40:00,
2013-02-03 22:00:00,2.7,-12.6,29.79,East,90,0.0,0.0,48,0.00,,SKC,0.00,VWS V14.01,2013-02-04 04:00:00,
2013-02-03 22:20:00,2.3,-12.9,29.79,East,90,0.0,0.0,48,0.00,,SKC,0.00,VWS V14.01,2013-02-04 04:20:00,
2013-02-03 22:40:00,1.9,-13.2,29.79,East,90,0.0,0.0,48,0.00,,SKC,0.00,VWS V14.01,2013-02-04 04:40:00,
2013-02-03 23:00:00,1.9,-13.2,29.79,East,90,0.0,0.0,48,0.00,,SKC,0.00,VWS V14.01,2013-02-04 05:00:00,
2013-02-03 23:20:00,1.9,-13.2,29.79,East,90,0.0,0.0,48,0.00,,SKC,0.00,VWS V14.01,2013-02-04 05:20:00,
2013-02-03 23:40:00,2.1,-13.1,29.79,East,90,0.0,0.0,48,0.00,,SKC,0.00,VWS V14.01,2013-02-04 05:40:00,